Regional Weather Roundup
Issued by NWS

Home | Current Version | Previous Version | Graphics & Text | Print | Product List | Glossary Off
Versions: 1 2 3 4 5 6 7 8 9 10 11 12 13 14 15 16 17 18 19 20 21 22 23 24 25 26 27 28 29 30 31 32 33 34 35 36 37 38 39 40 41 42 43 44 45 46 47 48 49 50

416
ASUS43 KTOP 180008
RWRKS

WEATHER ROUNDUP FOR KANSAS
NATIONAL WEATHER SERVICE GOODLAND KS
600 PM CST FRI NOV 17 2017

NOTE:  "FAIR" INDICATES FEW OR NO CLOUDS BELOW 12,000 FEET WITH NO
SIGNIFICANT WEATHER AND/OR OBSTRUCTIONS TO VISIBILITY.

KSZ001>006-013>018-027>032-041>047-180100-
NORTHWEST KANSAS

CITY           SKY/WX    TMP DP  RH WIND       PRES   REMARKS
GOODLAND       PTCLDY    51  32  48 N13       29.56R
6HR MIN TEMP:  51; 6HR MAX TEMP:  76;

HAYS           CLEAR     60  40  47 NE12      29.48S
HILL CITY      CLEAR     56  39  53 NE13      29.51S
6HR MIN TEMP:  56; 6HR MAX TEMP:  74;

RUSSELL        CLEAR     62  42  47 N9        29.47R
6HR MIN TEMP:  62; 6HR MAX TEMP:  79;

$$

KSZ061>065-074>080-084>089-180100-
SOUTHWEST KANSAS

CITY           SKY/WX    TMP DP  RH WIND       PRES   REMARKS
DODGE CITY     CLOUDY    67  35  30 S8        29.49F
6HR MIN TEMP:  67; 6HR MAX TEMP:  79;

ELKHART        CLOUDY    75  39  27 W20G30    29.60S
GARDEN CITY    CLEAR     72  34  24 SW15      29.49F
6HR MIN TEMP:  66; 6HR MAX TEMP:  79;

GREAT BEND     CLOUDY    64  40  41 SW12      29.47S
LIBERAL        CLOUDY    74  34  23 SW18      29.56R
PRATT          CLOUDY    65  36  34 S7        29.49F
6HR MIN TEMP:  64; 6HR MAX TEMP:  78;

$$

KSZ066>073-081>083-090>101-180100-
SOUTHEAST KANSAS

CITY           SKY/WX    TMP DP  RH WIND       PRES   REMARKS
CHANUTE        CLOUDY    71  56  58 S12       29.51S
6HR MIN TEMP:  68; 6HR MAX TEMP:  77;

COFFEYVILLE    CLEAR     76  56  49 SW14      29.53S
6HR MIN TEMP:  69; 6HR MAX TEMP:  80;

HUTCHINSON     CLOUDY    67  47  48 S9        29.47S
6HR MIN TEMP:  67; 6HR MAX TEMP:  77;

MEDICINE LODGE   N/A     71  48  43 SE8       29.49F
NEWTON         CLOUDY    66  49  54 S13       29.49S
PARSONS        PTCLDY    74  56  53 S12       29.53F
6HR MIN TEMP:  67; 6HR MAX TEMP:  79;

WICHITA INTL   CLOUDY    66  51  58 S9        29.49S
6HR MIN TEMP:  66; 6HR MAX TEMP:  75;

WICHITA JABRA  CLOUDY    69  51  52 S10       29.49S
6HR MIN TEMP:  69; 6HR MAX TEMP:  75;

WICHITA MCCONL CLOUDY    67  49  53 SW12      29.49F
WINFIELD       CLEAR     70  54  56 S10       29.52S
6HR MIN TEMP:  70; 6HR MAX TEMP:  77;

$$

KSZ007>012-019>026-033>040-048>060-102>105-180100-
NORTHEAST KANSAS

CITY           SKY/WX    TMP DP  RH WIND       PRES   REMARKS
CONCORDIA      CLEAR     60  45  57 NW6       29.48R
6HR MIN TEMP:  59; 6HR MAX TEMP:  71;

EMPORIA        CLOUDY    65  51  60 S8        29.49R
6HR MIN TEMP:  65; 6HR MAX TEMP:  76;

LAWRENCE       CLEAR     62  57  83 E7        29.48R
6HR MIN TEMP:  62; 6HR MAX TEMP:  73;

MANHATTAN      PTCLDY    64  49  57 SW6       29.46R
6HR MIN TEMP:  63; 6HR MAX TEMP:  77;

MARYSVILLE     CLEAR     59  48  67 N5        29.48R
OLATHE IND     CLOUDY    62  59  90 S8        29.49S
6HR MIN TEMP:  62; 6HR MAX TEMP:  69;

OLATHE EXE     CLOUDY    61  58  90 S8        29.50R
6HR MIN TEMP:  60; 6HR MAX TEMP:  68;

SALINA         CLOUDY    63  48  58 S9        29.45F
6HR MIN TEMP:  63; 6HR MAX TEMP:  78;

TOPEKA BILLARD CLEAR     68  58  70 S5        29.46S
6HR MIN TEMP:  64; 6HR MAX TEMP:  74;

TOPEKA FORBES  CLEAR     63  56  78 S5        29.47R
6HR MIN TEMP:  63; 6HR MAX TEMP:  75;

$$




USA.gov is the U.S. government's official web portal to all federal, state and local government web resources and services.